Temperature
17 18 18 18 18 18 18 17 16 16 16 17 17 18 18 19 19 19 19 19 19 18 18 17 17 16 16 16 16 16 16 16 15 15 15 16 16 16 16 16 17 17 17
16 17 17 17 17 17 17 17 17 17 17 17 18 18 19 19 19 19 19 19 19 18 18 18 17 17 17 17 16 16 16 16 15 15 14 14 15 16 16 16 16 17 17
15 15 16 16 17 16 16 16 16 16 16 17 18 18 19 19 19 19 19 19 19 19 18 18 18 18 18 17 17 17 16 16 16 15 14 13 13 14 16 16 17 17 17
15 15 15 15 15 15 15 15 16 16 17 17 18 18 19 19 19 19 19 19 18 18 18 18 18 18 18 18 17 17 17 16 16 15 14 13 13 13 14 16 16 16 17
15 15 15 15 16 16 16 15 15 16 17 17 18 18 18 18 18 18 18 18 18 18 18 18 18 18 18 18 17 17 17 16 15 15 14 14 14 13 13 14 15 16 17
15 15 15 15 15 16 16 16 16 16 16 16 16 16 17 17 17 17 17 17 17 17 17 17 17 17 17 17 17 17 17 16 15 14 14 14 14 14 13 13 14 15 16
16 16 16 16 15 15 15 15 15 15 15 15 15 15 15 15 15 15 15 15 16 16 17 17 17 17 17 17 17 17 16 16 15 14 14 13 13 13 13 13 13 13 15
16 16 16 15 15 15 15 15 14 14 14 14 14 14 14 14 14 14 13 14 14 14 15 16 16 16 16 16 16 16 16 16 15 14 14 13 13 14 13 13 13 13 13
16 16 16 16 15 15 15 14 14 14 13 13 13 13 13 13 13 13 13 13 13 13 13 14 14 14 14 14 15 15 15 15 15 14 13 13 13 14 14 14 13 13 13
16 16 16 16 16 15 15 14 14 13 13 13 13 13 12 12 12 12 12 12 12 12 13 13 13 13 13 13 14 14 15 15 15 14 13 13 13 13 14 14 14 14 13
16 16 16 15 15 15 14 14 14 13 13 13 13 12 12 12 12 12 11 11 11 11 12 12 12 12 12 13 13 14 14 14 14 14 14 13 13 13 14 14 14 14 14
16 15 14 14 14 14 14 14 13 13 13 13 12 12 12 12 12 12 11 11 11 11 11 11 11 11 11 12 12 13 13 14 14 14 14 13 13 13 14 14 14 14 14
14 14 14 14 14 13 13 13 13 13 13 12 12 12 12 11 11 11 11 11 11 11 10 10 11 11 11 11 11 12 12 13 13 14 13 13 13 13 14 14 14 14 14
14 14 13 13 13 13 13 13 13 12 12 12 12 12 12 11 11 11 11 10 10 10 10 10 10 10 10 10 10 11 11 12 12 13 13 13 13 13 14 14 14 14 14
13 13 13 13 13 13 13 12 12 12 12 12 12 11 11 11 11 10 10 10 10 10 10 10 10 10 10 10 10 10 10 11 12 12 13 13 13 13 13 14 14 14 14
14 13 13 13 13 13 12 12 12 12 12 11 11 11 11 11 10 10 10 10 9 9 9 9 9 10 10 10 10 10 10 10 11 12 12 13 13 13 13 13 14 14 14
13 13 13 12 12 12 11 11 11 11 11 11 11 11 11 10 10 10 10 9 9 9 9 9 9 9 9 10 10 10 10 10 10 11 12 12 13 13 13 13 13 14 13
12 12 11 11 11 10 10 10 10 10 10 10 10 10 10 10 9 9 9 9 9 8 8 8 8 9 9 9 9 9 9 9 10 10 11 11 12 12 13 13 13 13 13
11 11 10 9 9 9 8 8 8 7 7 8 8 8 8 8 8 8 8 8 8 8 8 8 8 8 9 9 9 9 9 9 9 10 10 11 11 12 12 13 13 13 12
10 9 8 8 7 7 6 5 5 5 5 5 5 5 6 6 7 7 7 7 7 7 7 7 7 7 8 9 9 9 9 9 9 9 10 10 11 11 12 12 12 12 12
8 8 7 6 5 5 4 4 4 4 4 3 4 4 4 4 5 5 5 6 6 6 6 6 7 7 8 8 9 9 9 9 9 9 9 10 10 11 11 12 12 13 12
7 6 5 5 4 4 4 3 3 3 3 3 3 3 3 3 3 4 4 4 5 5 5 6 6 7 7 8 8 9 9 9 9 9 9 9 10 10 11 11 12 12 12
6 5 5 4 4 4 4 3 4 3 3 3 3 3 3 3 3 3 3 3 4 4 5 5 6 7 7 8 8 9 9 9 9 8 8 8 9 9 10 10 11 11 11
5 5 4 4 4 4 4 4 4 4 3 3 3 3 3 3 3 3 3 3 4 4 5 5 6 6 7 8 8 9 9 8 8 8 8 8 8 8 9 10 10 11 11
5 4 4 4 4 4 4 4 4 4 4 4 3 3 3 3 3 4 4 4 4 4 5 5 6 6 7 8 8 8 9 9 8 8 8 7 8 8 8 9 10 10 11
5 4 4 4 4 4 5 5 4 4 4 4 4 3 3 3 3 4 4 4 4 4 5 5 6 6 7 7 8 8 8 8 8 8 7 7 7 8 8 9 9 10 10
Wind_Speed
5 6 9 10 7 8 10 6 4 7 8 7 6 4 4 3 4 5 7 8 8 9 6 5 5 4 4 3 3 2 2 0 1 1 3 5 6 6 5 5 5 7 8
5 8 10 11 10 9 6 4 5 7 9 8 5 4 3 3 4 5 6 7 7 8 7 7 5 5 4 3 3 3 2 1 1 2 1 4 5 4 3 2 3 5 5
10 12 14 15 14 12 8 5 3 4 5 6 3 1 1 2 1 2 4 6 7 7 7 9 7 6 5 4 3 2 3 2 0 2 2 0 2 4 4 4 4 4 5
10 11 13 14 13 11 10 8 7 7 7 7 6 4 2 1 1 2 3 5 6 7 7 9 9 7 5 5 4 3 4 4 1 1 2 3 3 2 4 4 4 5 5
7 9 9 9 9 8 7 6 6 7 7 8 9 8 7 5 4 4 4 3 3 4 6 8 8 8 6 6 5 4 4 3 3 3 3 3 3 4 4 6 5 5 5
5 6 6 7 6 5 4 4 5 5 5 6 7 7 7 7 7 7 7 6 4 3 4 6 7 8 7 7 6 6 5 4 4 4 4 4 3 4 4 5 6 6 5
3 4 4 3 2 1 1 2 3 4 4 5 5 4 4 5 5 5 5 5 4 4 5 3 6 6 7 7 6 6 5 5 5 5 5 5 5 5 4 5 5 5 4
3 3 2 0 2 3 3 2 2 0 2 3 3 3 4 3 2 3 3 4 4 4 6 6 3 4 6 7 6 5 6 5 6 7 6 5 6 5 5 5 4 5 4
4 5 4 3 2 3 3 4 3 3 3 2 2 1 2 3 4 4 3 3 4 5 6 7 6 4 5 6 7 6 7 6 6 7 7 6 6 6 6 6 6 4 4
5 6 6 6 6 4 3 3 3 5 6 6 6 5 5 5 5 4 6 5 5 5 7 7 7 7 6 7 7 7 7 8 7 6 7 7 6 6 6 6 5 6 5
8 9 9 9 8 6 5 5 5 5 6 7 7 7 7 7 6 6 7 6 6 6 6 6 7 7 7 7 6 7 8 9 8 8 8 8 7 6 5 5 5 5 6
10 9 10 10 9 8 8 8 8 8 9 8 8 9 9 8 8 8 9 8 8 7 7 6 7 7 7 6 6 7 7 8 8 9 9 9 7 7 6 5 5 5 6
9 8 8 8 8 9 10 10 10 10 10 10 9 10 10 10 10 10 9 8 8 9 8 7 7 8 7 7 7 6 6 6 7 8 9 9 8 8 6 6 6 5 5
7 7 8 8 9 9 10 11 11 11 11 11 11 11 12 12 11 10 9 9 9 9 9 9 8 8 8 8 8 6 5 5 6 7 9 10 10 9 8 7 7 5 5
9 11 10 10 10 10 10 10 11 11 11 11 12 13 12 11 10 10 9 9 9 10 10 10 9 9 8 8 8 7 6 5 6 7 8 9 11 12 9 7 6 6 5
13 14 13 12 12 12 12 12 12 12 12 12 13 12 11 10 10 10 9 8 8 8 8 9 10 10 10 11 12 9 6 6 6 7 7 8 10 11 11 10 9 9 8
17 17 15 14 13 13 13 13 13 13 12 12 13 12 11 10 10 10 9 8 7 7 7 8 9 10 12 16 15 14 8 7 7 6 6 7 8 10 7 7 6 4 7
16 15 14 13 13 12 13 13 13 13 12 12 12 11 10 11 10 9 9 8 6 6 7 8 9 9 12 16 16 15 9 7 7 7 7 8 8 9 9 7 5 4 5
15 13 13 14 12 12 13 14 15 14 14 13 11 10 9 9 9 9 9 7 6 7 7 8 9 9 10 14 16 13 6 6 7 6 6 8 10 14 14 10 8 7 6
11 11 11 12 12 13 13 14 15 15 15 14 13 11 9 8 8 8 8 7 6 8 8 9 9 9 10 13 15 13 6 6 5 4 3 7 10 16 16 11 10 11 8
11 11 12 12 14 14 13 14 15 16 15 14 13 11 10 10 9 8 7 7 7 7 8 9 9 9 10 12 15 14 7 6 5 3 1 0 5 12 15 13 9 12 12
12 13 14 15 15 14 14 16 16 16 15 14 14 13 11 12 12 8 7 7 7 7 8 8 9 8 8 10 12 16 13 9 6 5 3 3 6 4 7 9 12 16 14
15 15 17 19 17 14 14 17 17 15 15 14 14 13 13 11 10 9 9 8 7 7 7 7 8 7 6 8 14 15 15 13 6 5 7 7 8 5 1 5 15 15 11
16 18 19 19 18 16 15 15 16 15 14 14 13 11 11 10 10 8 8 7 7 8 8 7 7 6 5 5 5 6 7 8 6 6 8 9 8 4 2 3 10 8 9
16 16 17 18 19 18 17 16 15 14 14 13 12 10 9 9 9 8 7 7 7 8 8 7 6 6 6 8 12 10 8 8 7 7 4 3 3 2 1 3 5 5 8
17 17 17 17 18 17 17 17 15 14 14 12 10 8 7 7 6 5 5 7 9 11 13 10 7 6 7 8 13 15 14 14 15 8 5 6 6 5 4 5 5 5 7
Wind_Direction
91 80 79 83 80 88 96 112 203 245 257 257 260 255 242 218 191 190 184 180 175 168 163 159 154 151 149 154 148 144 120 199 185 24 318 294 274 262 257 252 255 256 251
30 51 59 62 58 66 88 141 214 238 247 250 245 234 224 218 200 195 196 192 177 169 168 163 164 161 151 139 124 125 128 160 114 121 9 337 333 338 303 283 269 275 274
30 43 48 48 48 45 35 36 27 357 325 300 283 295 14 21 60 221 224 214 190 176 169 171 168 170 163 166 166 151 149 162 68 133 148 182 290 311 303 291 292 301 296
34 49 53 52 52 50 44 35 31 37 27 12 11 19 22 330 314 276 257 247 216 187 177 179 177 175 171 175 194 169 158 154 193 276 190 193 198 258 305 305 299 312 312
29 51 59 63 62 59 57 47 33 32 32 37 34 33 30 13 360 1 355 317 269 226 202 191 182 178 178 181 189 190 188 172 182 200 215 229 223 218 236 288 306 316 297
31 52 61 67 61 49 42 35 36 30 22 33 43 44 34 19 14 8 2 352 338 322 281 225 197 185 181 184 189 193 197 203 212 219 214 212 218 213 222 262 292 298 292
23 41 51 65 90 111 99 62 48 21 10 24 30 31 28 17 10 352 348 348 341 333 327 279 214 195 188 185 181 191 208 214 222 229 228 224 224 219 219 248 271 279 290
355 7 359 277 236 222 211 200 174 244 351 21 15 10 8 356 335 329 323 320 308 301 321 337 291 217 195 190 188 199 214 215 219 226 223 231 240 230 220 225 246 276 282
352 347 340 329 296 267 249 233 218 223 225 213 211 280 318 318 308 311 313 305 303 309 326 327 322 294 238 216 201 208 216 213 216 222 229 235 245 239 234 228 224 235 263
310 303 294 280 265 238 217 208 209 222 223 218 219 222 236 249 263 284 296 298 301 312 321 320 314 305 282 247 222 217 219 216 220 217 224 234 240 242 237 229 223 220 229
278 274 272 269 260 248 240 243 241 237 238 235 234 238 243 242 244 253 265 272 279 289 295 300 305 305 295 277 253 239 227 221 223 219 220 230 231 234 237 230 221 219 218
288 291 298 298 290 276 268 262 258 253 250 245 242 245 249 246 244 248 253 254 260 267 269 276 284 291 296 300 288 268 257 238 229 223 218 227 229 231 234 229 225 220 213
307 314 317 315 300 283 272 264 259 254 253 250 247 249 252 249 246 248 251 250 250 256 258 256 261 268 274 280 284 282 275 263 247 232 221 221 218 229 231 228 228 226 220
317 314 307 299 287 277 271 267 263 257 254 250 246 245 246 245 244 245 247 249 247 249 254 253 250 252 257 263 265 265 273 278 274 256 235 222 213 218 220 222 223 221 219
308 302 294 284 276 271 267 260 256 254 251 247 243 240 239 237 235 236 240 245 247 249 248 252 253 251 250 253 245 237 251 265 279 276 255 234 217 210 206 207 210 208 203
305 301 294 286 278 272 268 263 258 255 249 246 243 237 230 226 223 222 225 230 240 248 250 250 252 253 255 252 247 235 240 251 262 276 268 241 209 199 199 205 206 203 191
306 305 299 289 285 283 280 277 272 266 258 250 245 236 227 222 219 214 209 215 230 241 248 250 251 251 250 249 249 243 234 240 250 262 256 230 204 181 176 176 162 168 175
308 306 303 300 298 295 298 296 294 288 278 268 258 248 236 230 220 210 209 217 223 234 243 249 250 250 254 249 242 239 232 234 243 249 244 226 197 185 173 158 137 116 108
306 310 312 313 315 317 319 318 313 307 300 293 284 274 259 242 225 215 215 217 221 234 240 245 247 249 255 250 240 228 214 228 242 248 244 226 200 188 171 154 142 123 105
317 322 325 324 323 322 323 319 314 310 305 302 300 296 286 264 241 227 221 219 221 232 241 248 245 244 247 249 238 218 200 218 234 243 246 227 202 182 170 159 153 145 137
323 323 320 319 318 318 316 311 307 302 299 295 289 288 289 279 263 245 233 229 230 234 240 247 248 244 240 243 232 211 192 200 206 202 177 90 181 180 176 166 166 157 143
320 322 323 323 321 318 314 310 306 303 301 297 292 288 283 279 278 260 245 232 227 232 238 243 249 247 239 229 225 210 201 189 177 171 141 84 89 120 179 174 157 145 135
326 329 328 326 323 320 314 311 308 306 303 299 294 290 286 280 274 265 255 243 231 230 234 234 237 240 234 225 220 210 203 193 173 160 141 105 82 67 117 181 156 150 142
332 333 331 328 327 324 318 311 308 306 301 296 292 287 283 279 273 265 255 242 228 225 226 225 227 230 229 214 197 192 189 182 164 147 138 117 104 92 359 169 166 160 156
332 332 330 327 325 323 320 315 312 309 305 298 291 286 279 277 277 267 255 241 229 218 215 217 210 208 221 219 191 177 178 175 168 148 139 134 122 132 171 172 176 155 146
333 331 329 327 325 324 322 320 318 316 312 308 300 292 284 280 276 274 277 255 241 232 225 222 212 211 219 211 184 180 175 165 156 146 158 162 160 171 186 185 174 156 152
Height
1493 1491 1488 1486 1487 1482 1481 1482 1488 1488 1491 1493 1495 1497 1498 1499 1500 1501 1501 1501 1501 1501 1500 1499 1499 1498 1497 1496 1496 1495 1495 1496 1496 1496 1495 1495 1494 1493 1494 1495 1496 1496 1496
1495 1491 1488 1485 1485 1485 1485 1483 1488 1490 1492 1494 1496 1498 1498 1498 1499 1500 1499 1499 1499 1499 1498 1498 1497 1497 1495 1493 1492 1491 1491 1492 1492 1492 1491 1491 1491 1490 1491 1491 1492 1492 1492
1496 1492 1488 1487 1488 1489 1490 1487 1490 1493 1495 1496 1497 1496 1496 1497 1497 1497 1498 1498 1497 1497 1496 1496 1496 1495 1493 1491 1490 1488 1488 1488 1489 1489 1490 1490 1489 1488 1486 1487 1488 1488 1487
1499 1495 1493 1492 1492 1493 1493 1493 1493 1493 1494 1495 1494 1493 1494 1494 1494 1494 1495 1495 1495 1495 1494 1494 1494 1493 1491 1490 1488 1486 1485 1485 1485 1486 1486 1488 1487 1487 1483 1482 1483 1483 1483
1503 1499 1497 1496 1497 1497 1497 1497 1496 1494 1494 1493 1492 1492 1491 1491 1490 1490 1490 1491 1491 1491 1491 1491 1491 1490 1489 1488 1487 1485 1483 1483 1482 1482 1483 1484 1484 1484 1483 1478 1477 1477 1478
1506 1502 1500 1499 1499 1499 1499 1498 1497 1496 1494 1492 1491 1490 1489 1488 1487 1486 1486 1486 1486 1485 1485 1485 1486 1486 1485 1485 1484 1483 1481 1480 1480 1480 1480 1480 1480 1479 1478 1476 1473 1472 1472
1507 1504 1502 1502 1501 1501 1500 1499 1497 1495 1493 1491 1490 1488 1487 1485 1484 1482 1481 1480 1480 1479 1479 1478 1478 1479 1480 1480 1480 1480 1478 1477 1476 1476 1476 1476 1476 1475 1474 1473 1471 1469 1467
1509 1507 1505 1504 1502 1501 1500 1498 1497 1495 1493 1492 1490 1487 1485 1483 1481 1479 1477 1476 1474 1473 1472 1471 1471 1472 1474 1474 1475 1475 1475 1474 1473 1473 1473 1473 1472 1471 1470 1469 1469 1466 1464
1510 1508 1506 1504 1502 1500 1498 1496 1494 1492 1491 1489 1487 1485 1483 1481 1478 1476 1474 1472 1470 1468 1466 1465 1465 1466 1467 1468 1469 1469 1470 1470 1469 1469 1469 1469 1468 1468 1467 1466 1465 1465 1462
1509 1506 1503 1501 1498 1496 1493 1491 1489 1487 1486 1484 1482 1480 1478 1476 1473 1471 1469 1467 1465 1463 1461 1460 1460 1460 1460 1461 1462 1463 1464 1464 1464 1464 1464 1464 1464 1464 1463 1462 1461 1460 1459
1507 1503 1500 1496 1492 1489 1487 1485 1484 1482 1480 1478 1476 1474 1472 1470 1468 1466 1464 1462 1460 1458 1457 1455 1454 1454 1454 1454 1455 1456 1457 1458 1458 1459 1459 1459 1459 1459 1459 1458 1457 1456 1455
1505 1501 1497 1492 1488 1485 1483 1480 1478 1476 1474 1472 1470 1468 1466 1464 1462 1460 1459 1457 1455 1454 1452 1450 1449 1448 1447 1447 1447 1448 1449 1450 1452 1452 1453 1454 1454 1454 1454 1453 1452 1451 1449
1502 1498 1494 1489 1485 1482 1478 1475 1472 1468 1466 1464 1461 1459 1458 1456 1454 1453 1452 1451 1450 1448 1447 1446 1444 1442 1441 1441 1441 1441 1442 1443 1444 1445 1446 1447 1448 1448 1448 1448 1446 1446 1444
1498 1494 1489 1485 1480 1476 1472 1468 1464 1461 1458 1455 1453 1450 1449 1447 1446 1445 1444 1443 1442 1441 1440 1440 1439 1437 1436 1435 1435 1435 1435 1436 1436 1438 1439 1441 1442 1442 1442 1442 1441 1440 1439
1492 1487 1482 1477 1473 1468 1464 1460 1456 1453 1449 1446 1443 1441 1439 1438 1437 1436 1435 1434 1434 1433 1433 1432 1432 1432 1431 1430 1429 1429 1429 1429 1429 1430 1432 1433 1435 1436 1437 1436 1435 1434 1433
1485 1480 1474 1469 1464 1459 1454 1449 1445 1442 1438 1435 1432 1430 1429 1428 1427 1426 1426 1426 1425 1425 1424 1424 1424 1424 1424 1424 1424 1424 1423 1423 1423 1423 1424 1426 1429 1430 1431 1431 1430 1429 1428
1480 1474 1468 1462 1456 1451 1445 1440 1435 1431 1427 1424 1421 1419 1418 1417 1416 1416 1416 1417 1417 1416 1416 1416 1416 1416 1416 1417 1418 1418 1417 1417 1416 1416 1417 1419 1422 1424 1425 1426 1425 1424 1423
1475 1468 1462 1455 1449 1443 1437 1431 1425 1420 1416 1412 1409 1408 1406 1405 1405 1405 1406 1406 1407 1407 1407 1407 1407 1407 1408 1409 1410 1411 1411 1411 1410 1410 1410 1412 1415 1418 1420 1421 1422 1421 1420
1470 1463 1457 1450 1442 1436 1429 1422 1415 1410 1405 1401 1398 1396 1395 1394 1394 1394 1395 1396 1397 1397 1398 1398 1398 1399 1400 1402 1403 1404 1405 1404 1404 1403 1404 1406 1409 1412 1416 1418 1419 1418 1419
1465 1457 1450 1443 1435 1428 1420 1413 1406 1401 1395 1391 1388 1385 1384 1383 1382 1383 1384 1385 1386 1387 1388 1388 1389 1390 1391 1394 1395 1397 1398 1399 1398 1398 1398 1400 1403 1408 1411 1414 1416 1417 1419
1459 1451 1443 1435 1427 1419 1412 1404 1397 1391 1386 1381 1377 1374 1373 1372 1372 1372 1373 1374 1376 1377 1378 1379 1380 1381 1383 1386 1388 1391 1392 1393 1394 1393 1394 1395 1398 1403 1408 1412 1415 1417 1419
1452 1443 1435 1427 1420 1412 1404 1396 1389 1383 1377 1372 1368 1365 1363 1362 1361 1361 1362 1364 1365 1367 1369 1370 1372 1373 1375 1378 1381 1384 1387 1388 1389 1390 1390 1391 1393 1398 1404 1409 1414 1417 1420
1446 1438 1430 1421 1413 1406 1399 1390 1383 1377 1371 1365 1361 1357 1355 1353 1352 1351 1351 1353 1355 1358 1360 1362 1364 1366 1368 1371 1375 1378 1381 1384 1385 1386 1388 1389 1391 1395 1400 1407 1412 1416 1420
1441 1433 1424 1415 1407 1400 1393 1386 1378 1371 1365 1359 1355 1351 1348 1346 1344 1344 1343 1344 1346 1349 1352 1354 1357 1359 1362 1365 1368 1372 1376 1379 1381 1383 1385 1387 1389 1392 1397 1403 1410 1415 1420
1437 1429 1421 1412 1404 1397 1389 1382 1375 1367 1360 1354 1349 1346 1343 1341 1339 1338 1338 1339 1340 1343 1346 1349 1351 1354 1357 1360 1364 1367 1371 1374 1377 1380 1382 1384 1387 1390 1395 1401 1408 1414 1419
1434 1425 1418 1410 1402 1394 1387 1379 1372 1364 1357 1350 1345 1342 1339 1337 1336 1335 1335 1336 1337 1339 1342 1344 1347 1350 1353 1357 1360 1364 1368 1371 1373 1376 1379 1382 1385 1389 1394 1399 1406 1412 1418